KF5JED-13 Weather Reports


time (UTC)temp
C
wind
direction
speed
KPH
gust
KPH
rain 1hr
cm
rain 24hr
cm
rain mn
cm
humidity
%
barometer
mb
20260504110248 15 238 16.1 25.7 0.00 0.00 0.00 61 1009.0
20260504100206 15 230 11.3 24.1 0.00 0.00 0.00 60 1009.3
20260504090128 15 209 20.9 27.4 0.00 0.00 0.00 59 1009.9
20260504081558 15 212 30.6 40.2 0.00 0.00 0.00 56 1010.2
20260504081054 15 212 30.6 37.0 0.00 0.00 0.00 55 1010.2
20260504080551 15 211 24.1 29.0 0.00 0.00 0.00 55 1010.2
20260504050404 13 177 6.4 9.7 0.00 0.00 0.00 48 1012.1
20260504045901 13 187 6.4 11.3 0.00 0.00 0.00 48 1012.2
20260504045356 13 196 8.0 14.5 0.00 0.00 0.00 47 1012.2
20260504044853 14 175 8.0 14.5 0.00 0.00 0.00 46 1012.0
20260504044350 15 189 12.9 16.1 0.00 0.00 0.00 45 1012.1
20260504043848 15 169 12.9 17.7 0.00 0.00 0.00 45 1012.2
20260504043344 15 184 14.5 17.7 0.00 0.00 0.00 45 1012.2
20260504042842 15 193 9.7 16.1 0.00 0.00 0.00 44 1012.3
20260504042338 15 195 9.7 17.7 0.00 0.00 0.00 45 1012.5
20260504041835 14 193 6.4 11.3 0.00 0.00 0.00 45 1012.5
20260504041331 14 188 9.7 14.5 0.00 0.00 0.00 46 1012.3
20260504040827 14 169 9.7 14.5 0.00 0.00 0.00 45 1012.2
20260504040325 13 154 9.7 11.3 0.00 0.00 0.00 46 1012.3
20260504035820 14 159 6.4 11.3 0.00 0.00 0.00 46 1012.5
20260504035318 14 163 12.9 14.5 0.00 0.00 0.00 46 1012.6
20260504034815 13 165 9.7 14.5 0.00 0.00 0.00 47 1012.5
20260504034313 13 159 8.0 9.7 0.00 0.00 0.00 47 1012.3
20260504033810 13 153 8.0 9.7 0.00 0.00 0.00 46 1012.5
20260504033308 15 157 9.7 16.1 0.00 0.00 0.00 43 1012.6
20260504032804 16 153 14.5 17.7 0.00 0.00 0.00 42 1012.6
20260504032301 14 140 6.4 11.3 0.00 0.00 0.00 44 1012.3
20260504031757 13 151 6.4 8.0 0.00 0.00 0.00 44 1012.5
20260504031255 13 153 4.8 4.8 0.00 0.00 0.00 44 1012.3
20260504030751 14 151 6.4 8.0 0.00 0.00 0.00 43 1012.2
20260504030248 14 146 6.4 8.0 0.00 0.00 0.00 44 1012.3
20260504025745 14 154 4.8 6.4 0.00 0.00 0.00 44 1012.3
20260504025242 14 155 4.8 6.4 0.00 0.00 0.00 44 1012.2
20260504024739 15 156 6.4 6.4 0.00 0.00 0.00 43 1012.3
20260504024235 16 154 8.0 9.7 0.00 0.00 0.00 40 1012.5
20260504023732 16 149 6.4 9.7 0.00 0.00 0.00 40 1012.5
20260504023228 16 164 4.8 6.4 0.00 0.00 0.00 40 1012.3
20260504022724 17 171 4.8 6.4 0.00 0.00 0.00 39 1012.1
20260504022220 17 186 4.8 8.0 0.00 0.00 0.00 38 1012.3
20260504021718 18 188 8.0 8.0 0.00 0.00 0.00 38 1012.2
20260504021215 18 197 8.0 11.3 0.00 0.00 0.00 37 1012.2
20260504020712 19 207 9.7 11.3 0.00 0.00 0.00 37 1012.2
20260504020208 20 196 6.4 12.9 0.00 0.00 0.00 36 1012.0
20260504015705 20 205 11.3 16.1 0.00 0.00 0.00 35 1012.1
20260504015201 21 200 14.5 22.5 0.00 0.00 0.00 34 1012.2
20260504014656 21 206 17.7 24.1 0.00 0.00 0.00 33 1012.1
20260504014154 22 209 19.3 30.6 0.00 0.00 0.00 32 1012.0
20260504013652 21 208 14.5 20.9 0.00 0.00 0.00 33 1012.0
20260504013148 21 198 14.5 25.7 0.00 0.00 0.00 33 1011.9
20260504012645 22 209 20.9 29.0 0.00 0.00 0.00 32 1011.8
20260504012143 22 210 19.3 29.0 0.00 0.00 0.00 32 1012.0
20260504011640 22 206 25.7 32.2 0.00 0.00 0.00 31 1012.1
20260504011136 22 209 16.1 29.0 0.00 0.00 0.00 31 1011.8
20260504010632 23 218 12.9 32.2 0.00 0.00 0.00 31 1012.0
20260504010128 23 206 20.9 29.0 0.00 0.00 0.00 30 1012.0
20260504005625 23 210 11.3 27.4 0.00 0.00 0.00 31 1012.1
20260504005122 23 215 27.4 29.0 0.00 0.00 0.00 30 1012.1
20260504004620 23 203 24.1 35.4 0.00 0.00 0.00 30 1012.1
20260504004117 23 211 29.0 33.8 0.00 0.00 0.00 29 1012.3
20260504003614 23 214 20.9 29.0 0.00 0.00 0.00 29 1012.0
20260504003110 23 214 27.4 35.4 0.00 0.00 0.00 29 1012.1
20260504002607 23 212 27.4 35.4 0.00 0.00 0.00 29 1012.3
20260504002105 24 216 27.4 40.2 0.00 0.00 0.00 29 1012.5
20260504001602 24 229 24.1 38.6 0.00 0.00 0.00 29 1012.5
20260504001058 24 209 27.4 33.8 0.00 0.00 0.00 29 1012.2
20260504000555 24 218 24.1 37.0 0.00 0.00 0.00 29 1012.7
20260504000053 24 197 27.4 40.2 0.00 0.00 0.00 29 1012.3
20260503235551 25 200 27.4 38.6 0.00 0.00 0.00 28 1012.3
20260503235048 25 210 30.6 37.0 0.00 0.00 0.00 28 1012.2
20260503234545 24 220 24.1 45.1 0.00 0.00 0.00 29 1012.5
20260503234043 25 216 30.6 43.5 0.00 0.00 0.00 28 1012.3
20260503233539 25 210 24.1 35.4 0.00 0.00 0.00 27 1012.2
20260503233035 25 211 38.6 45.1 0.00 0.00 0.00 28 1012.5
20260503232533 25 202 22.5 32.2 0.00 0.00 0.00 28 1012.5
20260503232030 25 213 30.6 33.8 0.00 0.00 0.00 28 1012.3
20260503231528 25 221 24.1 37.0 0.00 0.00 0.00 26 1012.5
20260503231024 25 203 24.1 43.5 0.00 0.00 0.00 26 1012.5
20260503230521 25 208 20.9 32.2 0.00 0.00 0.00 26 1012.2
20260503230019 25 206 24.1 35.4 0.00 0.00 0.00 25 1012.5
20260503225515 26 218 46.7 57.9 0.00 0.00 0.00 25 1012.0
20260503225010 26 176 22.5 41.8 0.00 0.00 0.00 24 1012.6
20260503224508 25 221 24.1 43.5 0.00 0.00 0.00 25 1012.8
20260503224006 25 211 25.7 40.2 0.00 0.00 0.00 25 1012.7
20260503223503 25 231 19.3 27.4 0.00 0.00 0.00 25 1012.8
20260503222958 25 228 25.7 37.0 0.00 0.00 0.00 25 1012.7
20260503222457 25 204 25.7 29.0 0.00 0.00 0.00 24 1013.0
20260503221955 25 206 17.7 40.2 0.00 0.00 0.00 25 1012.9
20260503221453 25 208 19.3 35.4 0.00 0.00 0.00 24 1013.2
20260503220949 26 213 24.1 30.6 0.00 0.00 0.00 24 1013.2
20260503220446 25 213 29.0 37.0 0.00 0.00 0.00 24 1013.1
20260503215943 25 206 25.7 32.2 0.00 0.00 0.00 26 1013.3
20260503215440 25 226 27.4 41.8 0.00 0.00 0.00 25 1013.5
20260503214938 25 214 20.9 27.4 0.00 0.00 0.00 25 1013.6
20260503214435 25 215 17.7 30.6 0.00 0.00 0.00 24 1013.6
20260503213932 25 246 14.5 32.2 0.00 0.00 0.00 24 1013.9
20260503213431 25 218 22.5 25.7 0.00 0.00 0.00 25 1013.8
20260503212926 25 240 19.3 41.8 0.00 0.00 0.00 25 1013.8
20260503212424 25 224 22.5 37.0 0.00 0.00 0.00 25 1014.1
20260503211921 24 211 19.3 35.4 0.00 0.00 0.00 25 1014.1
20260503211418 25 223 20.9 33.8 0.00 0.00 0.00 25 1014.3
20260503210913 25 208 29.0 32.2 0.00 0.00 0.00 24 1014.2
20260503210410 25 229 22.5 40.2 0.00 0.00 0.00 25 1014.3
20260503205904 25 206 20.9 25.7 0.00 0.00 0.00 25 1014.5
20260503205402 25 210 24.1 29.0 0.00 0.00 0.00 25 1014.6
20260503204858 25 239 27.4 35.4 0.00 0.00 0.00 24 1014.6
20260503204356 25 225 19.3 29.0 0.00 0.00 0.00 24 1014.8
20260503203853 25 234 19.3 25.7 0.00 0.00 0.00 24 1014.8
20260503203350 25 205 30.6 43.5 0.00 0.00 0.00 25 1015.0
20260503202846 25 207 29.0 33.8 0.00 0.00 0.00 24 1015.2
20260503202345 26 225 25.7 29.0 0.00 0.00 0.00 24 1015.2
20260503201843 25 234 25.7 37.0 0.00 0.00 0.00 25 1015.3
20260503201339 25 221 22.5 29.0 0.00 0.00 0.00 25 1015.3
20260503200837 24 229 16.1 29.0 0.00 0.00 0.00 25 1015.5
20260503200332 25 213 25.7 35.4 0.00 0.00 0.00 25 1015.5
20260503195831 25 231 32.2 37.0 0.00 0.00 0.00 26 1015.6
20260503195327 25 209 32.2 37.0 0.00 0.00 0.00 24 1015.6
20260503194824 24 225 22.5 40.2 0.00 0.00 0.00 25 1016.1
20260503194320 24 206 12.9 30.6 0.00 0.00 0.00 26 1016.0
20260503193816 24 207 22.5 41.8 0.00 0.00 0.00 25 1016.0
20260503193312 25 229 20.9 37.0 0.00 0.00 0.00 24 1016.1
20260503192808 24 199 30.6 35.4 0.00 0.00 0.00 26 1016.1
20260503192305 23 216 22.5 40.2 0.00 0.00 0.00 28 1016.1
20260503191800 23 207 22.5 35.4 0.00 0.00 0.00 27 1016.5
20260503191258 23 232 27.4 45.1 0.00 0.00 0.00 27 1016.5
20260503190754 23 217 20.9 40.2 0.00 0.00 0.00 27 1016.2
20260503190251 23 217 24.1 33.8 0.00 0.00 0.00 29 1016.5
20260503185748 23 225 29.0 37.0 0.00 0.00 0.00 27 1016.7
20260503185244 23 228 27.4 37.0 0.00 0.00 0.00 27 1016.8
20260503184738 23 224 14.5 35.4 0.00 0.00 0.00 27 1016.7
20260503184235 23 208 27.4 43.5 0.00 0.00 0.00 26 1016.9
20260503183731 23 215 33.8 45.1 0.00 0.00 0.00 28 1017.1
20260503183229 23 192 29.0 48.3 0.00 0.00 0.00 29 1017.0
20260503182726 23 229 25.7 33.8 0.00 0.00 0.00 29 1017.5
20260503182225 22 211 29.0 41.8 0.00 0.00 0.00 30 1017.2
20260503181721 23 220 22.5 29.0 0.00 0.00 0.00 28 1017.6
20260503181218 23 224 25.7 32.2 0.00 0.00 0.00 28 1017.5
20260503180715 23 209 27.4 37.0 0.00 0.00 0.00 28 1017.7
20260503180213 22 224 20.9 33.8 0.00 0.00 0.00 29 1017.7
20260503175710 22 218 16.1 40.2 0.00 0.00 0.00 29 1017.7
20260503175208 22 213 24.1 33.8 0.00 0.00 0.00 29 1017.8
20260503174703 22 203 22.5 38.6 0.00 0.00 0.00 31 1017.9
20260503174201 22 223 29.0 33.8 0.00 0.00 0.00 30 1018.0
20260503173656 21 216 25.7 33.8 0.00 0.00 0.00 32 1018.0
20260503173152 21 230 30.6 45.1 0.00 0.00 0.00 31 1018.1
20260503172649 21 229 22.5 38.6 0.00 0.00 0.00 32 1018.4
20260503172147 21 205 25.7 37.0 0.00 0.00 0.00 30 1018.5
20260503171643 21 203 24.1 37.0 0.00 0.00 0.00 33 1018.7
20260503171141 21 223 19.3 45.1 0.00 0.00 0.00 32 1018.5
20260503170637 21 208 17.7 33.8 0.00 0.00 0.00 33 1018.7
20260503170134 21 210 33.8 40.2 0.00 0.00 0.00 32 1018.9
20260503150526 17 229 19.3 33.8 0.00 0.00 0.00 47 1019.8
20260503131419 10 211 9.7 14.5 0.00 0.00 0.00 69 1020.4
20260503130915 10 220 6.4 12.9 0.00 0.00 0.00 71 1020.1
20260503130413 10 216 9.7 24.1 0.00 0.00 0.00 71 1020.2